KD4PYR Weather Reports


Display with metric or nautical units.
time (UTC)temp
F
wind
direction
speed
MPH
gust
MPH
rain 1hr
in
rain 24hr
in
rain mn
in
humidity
%
barometer
mb
20260902024833 79 169 0.0 2.0 0.00 0.00 0.00 77 1018.8
20260902023830 79 169 0.0 3.0 0.00 0.00 0.00 77 1018.9
20260902022823 80 169 0.0 1.0 0.00 0.00 0.00 77 1018.8
20260902021814 80 169 0.0 0.0 0.00 0.00 0.00 77 1018.8
20260902020832 80 169 0.0 0.0 0.00 0.00 0.00 77 1018.8
20260902015833 80 169 0.0 1.0 0.00 0.00 0.00 77 1018.7
20260902014816 81 169 0.0 0.0 0.00 0.00 0.00 77 1018.7
20260902013835 81 169 0.0 0.0 0.00 0.00 0.00 76 1018.6
20260902012853 81 169 0.0 1.0 0.00 0.00 0.00 76 1018.5
20260902011824 81 169 0.0 0.0 0.00 0.00 0.00 76 1018.4
20260902010815 82 169 0.0 0.0 0.00 0.00 0.00 75 1018.4
20260902005821 82 169 0.0 0.0 0.00 0.00 0.00 75 1018.3
20260902004825 82 169 0.0 0.0 0.00 0.00 0.00 74 1018.2
20260902003843 83 169 0.0 0.0 0.00 0.00 0.00 73 1018.2
20260902002840 84 169 0.0 1.0 0.00 0.00 0.00 72 1018.2
20260902001837 84 169 0.0 1.0 0.00 0.00 0.00 70 1018.3
20260902000830 86 169 0.0 1.0 0.00 0.00 0.00 69 1018.3
20260901235834 86 169 1.0 2.0 0.00 0.00 0.00 66 1018.3
20260901234818 87 169 0.0 2.0 0.00 0.00 0.00 65 1018.3
20260901233837 87 169 1.0 3.0 0.00 0.00 0.00 63 1018.3
20260901232830 88 169 1.0 3.0 0.00 0.00 0.00 62 1018.4
20260901231823 88 169 3.0 6.0 0.00 0.00 0.00 61 1018.5
20260901230814 89 167 3.0 6.0 0.00 0.00 0.00 60 1018.4
20260901225816 89 184 2.0 5.0 0.00 0.00 0.00 60 1018.4
20260901224858 89 194 3.0 5.0 0.00 0.00 0.00 59 1018.5
20260901223829 89 286 2.0 5.0 0.00 0.00 0.00 60 1018.4
20260901222821 90 186 2.0 4.0 0.00 0.00 0.00 58 1018.3
20260901221841 90 187 3.0 7.0 0.00 0.00 0.00 58 1018.2
20260901220830 90 176 2.0 8.0 0.00 0.00 0.00 58 1018.3
20260901215834 90 158 3.0 10.0 0.00 0.00 0.00 58 1018.3
20260901214838 90 180 4.0 6.0 0.00 0.00 0.00 58 1018.3
20260901213829 90 181 3.0 6.0 0.00 0.00 0.00 59 1018.2
20260901212820 90 135 3.0 8.0 0.00 0.00 0.00 58 1018.3
20260901211856 91 146 5.0 11.0 0.00 0.00 0.00 57 1018.3
20260901210827 92 178 3.0 6.0 0.00 0.00 0.00 57 1018.4
20260901205830 92 154 3.0 7.0 0.00 0.00 0.00 57 1018.4
20260901204834 93 127 2.0 7.0 0.00 0.00 0.00 57 1018.6
20260901203830 92 244 1.0 7.0 0.00 0.00 0.00 55 1018.6
20260901202820 92 163 3.0 6.0 0.00 0.00 0.00 56 1018.7
20260901201839 92 179 3.0 7.0 0.00 0.00 0.00 57 1018.7
20260901200828 92 193 3.0 8.0 0.00 0.00 0.00 56 1018.7
20260901195831 93 194 3.0 6.0 0.00 0.00 0.00 56 1018.8
20260901194834 93 173 3.0 6.0 0.00 0.00 0.00 55 1018.8
20260901193827 93 161 3.0 5.0 0.00 0.00 0.00 56 1018.8
20260901192847 94 160 3.0 7.0 0.00 0.00 0.00 53 1019.0
20260901191815 94 208 1.0 5.0 0.00 0.00 0.00 54 1019.1
20260901190833 93 306 2.0 4.0 0.00 0.00 0.00 56 1019.2
20260901185819 92 155 2.0 8.0 0.00 0.00 0.00 57 1019.4
20260901184843 92 186 2.0 8.0 0.00 0.00 0.00 57 1019.5
20260901183844 92 182 2.0 6.0 0.00 0.00 0.00 57 1019.4
20260901182840 92 155 4.0 8.0 0.00 0.00 0.00 58 1019.5
20260901181832 92 184 3.0 7.0 0.00 0.00 0.00 57 1019.7
20260901180824 91 172 2.0 7.0 0.00 0.00 0.00 57 1019.7
20260901175855 91 302 2.0 5.0 0.00 0.00 0.00 57 1019.6
20260901174838 91 198 4.0 8.0 0.00 0.00 0.00 59 1019.7
20260901173832 90 171 4.0 9.0 0.00 0.00 0.00 60 1019.8
20260901172823 89 179 4.0 10.0 0.00 0.00 0.00 63 1020.0
20260901171817 90 185 5.0 9.0 0.00 0.00 0.00 61 1020.0
20260901170855 89 146 5.0 8.0 0.00 0.00 0.00 62 1020.1
20260901165817 89 165 3.0 9.0 0.00 0.00 0.00 63 1020.0
20260901164821 88 148 5.0 11.0 0.00 0.00 0.00 63 1020.2
20260901163900 89 156 4.0 11.0 0.00 0.00 0.00 64 1020.3
20260901162834 88 163 2.0 10.0 0.00 0.00 0.00 65 1020.4
20260901161826 87 293 2.0 10.0 0.00 0.00 0.00 66 1020.4
20260901160817 87 153 4.0 8.0 0.00 0.00 0.00 67 1020.4
20260901155822 86 180 1.0 10.0 0.00 0.00 0.00 69 1020.4
20260901154825 85 140 1.0 6.0 0.00 0.00 0.00 70 1020.5
20260901153818 85 184 1.0 5.0 0.00 0.00 0.00 70 1020.6
20260901152835 84 274 1.0 4.0 0.00 0.00 0.00 70 1020.5
20260901151826 83 322 1.0 8.0 0.00 0.00 0.00 72 1020.6
20260901150845 83 194 1.0 5.0 0.00 0.00 0.00 72 1020.7
20260901145827 82 169 4.0 6.0 0.00 0.00 0.00 72 1020.6
20260901144830 82 183 2.0 5.0 0.00 0.00 0.00 72 1020.7
20260901143850 81 225 0.0 5.0 0.00 0.00 0.00 73 1020.7
20260901142825 80 175 2.0 5.0 0.00 0.00 0.00 73 1020.8
20260901141816 79 171 0.0 5.0 0.00 0.00 0.00 74 1020.8
20260901140854 79 172 2.0 8.0 0.00 0.00 0.00 74 1020.8
20260901135819 78 146 0.0 4.0 0.00 0.00 0.00 74 1020.7
20260901134842 78 277 1.0 5.0 0.00 0.00 0.00 75 1020.6
20260901133839 77 168 2.0 5.0 0.00 0.00 0.00 75 1020.4
20260901132836 76 164 3.0 6.0 0.00 0.00 0.00 76 1020.4
20260901131833 76 175 1.0 5.0 0.00 0.00 0.00 76 1020.6
20260901130825 76 171 0.0 2.0 0.00 0.00 0.00 77 1020.7
20260901125829 75 171 1.0 3.0 0.00 0.00 0.00 78 1020.9
20260901124830 74 175 2.0 4.0 0.00 0.00 0.00 78 1020.9
20260901123821 74 178 0.0 4.0 0.00 0.00 0.00 80 1020.8
20260901122839 73 173 1.0 3.0 0.00 0.00 0.00 80 1020.8
20260901121832 73 173 1.0 3.0 0.00 0.00 0.00 81 1020.8
20260901120823 72 182 1.0 3.0 0.00 0.00 0.00 81 1020.7
20260901115847 72 182 2.0 3.0 0.00 0.00 0.00 82 1020.6
20260901114829 71 182 2.0 3.0 0.00 0.00 0.00 83 1020.5
20260901113848 71 182 0.0 2.0 0.00 0.00 0.00 83 1020.4
20260901112819 71 182 0.0 0.0 0.00 0.00 0.00 83 1020.2
20260901111839 71 182 0.0 0.0 0.00 0.00 0.00 83 1019.9
20260901110829 71 182 0.0 1.0 0.00 0.00 0.00 83 1019.7
20260901105832 71 182 0.0 1.0 0.00 0.00 0.00 83 1019.6
20260901104854 71 182 0.0 2.0 0.00 0.00 0.00 83 1019.6
20260901103825 71 182 0.0 0.0 0.00 0.00 0.00 83 1019.6
20260901102840 71 182 0.0 1.0 0.00 0.00 0.00 82 1019.6
20260901101832 71 182 0.0 0.0 0.00 0.00 0.00 82 1019.5
20260901100823 71 182 0.0 0.0 0.00 0.00 0.00 82 1019.5
20260901095826 71 182 0.0 0.0 0.00 0.00 0.00 82 1019.4
20260901094829 71 182 0.0 1.0 0.00 0.00 0.00 82 1019.3
20260901093819 72 182 0.0 0.0 0.00 0.00 0.00 82 1019.3
20260901092838 72 182 0.0 0.0 0.00 0.00 0.00 82 1019.2
20260901091831 72 182 0.0 1.0 0.00 0.00 0.00 82 1019.1
20260901090822 72 182 0.0 1.0 0.00 0.00 0.00 82 1019.0
20260901085827 72 182 0.0 0.0 0.00 0.00 0.00 81 1019.1
20260901084829 72 182 0.0 0.0 0.00 0.00 0.00 81 1019.0
20260901083822 73 182 0.0 0.0 0.00 0.00 0.00 80 1018.9
20260901082838 73 182 0.0 0.0 0.00 0.00 0.00 80 1018.9
20260901081830 74 182 0.0 0.0 0.00 0.00 0.00 80 1018.8
20260901080823 74 182 0.0 2.0 0.00 0.00 0.00 80 1018.6
20260901075828 74 182 0.0 1.0 0.00 0.00 0.00 80 1018.5
20260901074831 74 182 0.0 2.0 0.00 0.00 0.00 79 1018.4
20260901073823 74 182 1.0 3.0 0.00 0.00 0.00 79 1018.3
20260901072818 74 181 1.0 3.0 0.00 0.00 0.00 80 1018.2
20260901071835 74 181 0.0 2.0 0.00 0.00 0.00 79 1018.2
20260901070824 74 181 1.0 3.0 0.00 0.00 0.00 79 1018.2
20260901065827 75 181 0.0 2.0 0.00 0.00 0.00 79 1018.4
20260901064831 75 181 0.0 2.0 0.00 0.00 0.00 79 1018.4
20260901063822 74 181 1.0 2.0 0.00 0.00 0.00 79 1018.4
20260901062815 75 181 0.0 1.0 0.00 0.00 0.00 79 1018.6
20260901061832 75 181 0.0 3.0 0.00 0.00 0.00 79 1018.7
20260901060826 75 181 1.0 3.0 0.00 0.00 0.00 79 1018.7
20260901055829 75 181 1.0 5.0 0.00 0.00 0.00 79 1018.9
20260901054833 75 174 1.0 3.0 0.00 0.00 0.00 79 1019.0
20260901053824 75 175 2.0 4.0 0.00 0.00 0.00 79 1019.1
20260901052815 75 173 1.0 3.0 0.00 0.00 0.00 79 1019.3
20260901051855 75 173 1.0 3.0 0.00 0.00 0.00 80 1019.3
20260901050826 76 173 0.0 1.0 0.00 0.00 0.00 80 1019.4
20260901045829 76 174 0.0 2.0 0.00 0.00 0.00 79 1019.4
20260901044831 76 174 0.0 2.0 0.00 0.00 0.00 79 1019.3
20260901043822 76 174 0.0 1.0 0.00 0.00 0.00 79 1019.3
20260901042842 76 174 0.0 3.0 0.00 0.00 0.00 79 1019.4
20260901041837 76 174 0.0 2.0 0.00 0.00 0.00 79 1019.4
20260901040828 76 173 0.0 1.0 0.00 0.00 0.00 79 1019.4
20260901035833 76 174 0.0 1.0 0.00 0.00 0.00 79 1019.3
20260901034836 77 174 0.0 0.0 0.00 0.00 0.00 79 1019.5
20260901033829 77 174 0.0 0.0 0.00 0.00 0.00 79 1019.5
20260901032819 78 174 0.0 1.0 0.00 0.00 0.00 78 1019.6
20260901031855 78 173 0.0 1.0 0.00 0.00 0.00 78 1019.6
20260901030855 77 173 0.0 1.0 0.00 0.00 0.00 78 1019.6
20260901025817 77 173 0.0 1.0 0.00 0.00 0.00 78 1019.5